Location: Kuppenheim
(48.8299°N, 8.2568°E)
Time: 09:56:16
(UTC+00:00)

X-37B - Pass Details

Date: 20 June 2021
Orbit: 383 x 392 km, 45.0° (Epoch: 01 July)

Event Time Altitude Azimuth Distance (km) Brightness Sun altitude
Exits shadow 02:01:00 - 261° (W) 1,548 3.2 -10.1°
Reaches altitude 10° 02:01:23 10° 258° (WSW) 1,406 3.0 -10.1°
Maximum altitude 02:04:13 30° 195° (SSW) 711 1.4 -9.8°
Drops below altitude 10° 02:07:03 10° 131° (SE) 1,406 3.4 -9.5°
Sets 02:09:15 0° 120° (ESE) 2,260 4.6 -9.3°
